Location: Poughquag
(41.6090°N, 73.6820°W)
Time: 20:28:30
(UTC-04:00)

CUBESAT XI-V - Pass Details

Date: 22 April 2024
Orbit: 657 x 680 km, 98.2° (Epoch: 23 May)

Event Time Altitude Azimuth Distance (km) Brightness Sun altitude
Exits shadow 02:34:00 40° 31° (NNE) 992 ? -31.2°
Drops below altitude 10° 02:37:22 10° 358° (N) 2,117 ? -30.9°
Sets 02:39:39 0° 353° (N) 3,032 ? -30.7°
